This demonstration page uses our WeatherBlox Daily Observations layout. Learn more.

Left ArrowRight Arrow

Hourly Observations for March 8, 2015

Temp ( °F °C ) Dew Point ( °F °C ) Humidity (%) Winds ( mph kmh ) Pressure ( in mb ) Visibility ( mi km ) Precip ( " mm )
12:51 am 00:51 Clear 52 11.1 32 0 47 47 SE 9 15 29.93 1014 10 16 0.00 0.00
1:51 am 01:51 Clear 47 8.3 32 0 56 56 N 5 7 29.93 1014 10 16 0.00 0.00
2:51 am 02:51 Clear 47 8.3 31 -0.6 54 54 NNW 5 7 29.93 1014 10 16 0.00 0.00
3:51 am 03:51 Clear 48 8.9 33 0.6 56 56 NNW 7 11 29.92 1013 10 16 0.00 0.00
4:51 am 04:51 Clear 47 8.3 33 0.6 59 59 Calm 29.93 1013 10 16 0.00 0.00
5:51 am 05:51 Clear 43 6.1 32 0 65 65 NNE 6 9 29.95 1014 10 16 0.00 0.00
6:51 am 06:51 Sunny 44 6.7 33 0.6 65 65 NNW 6 9 29.97 1015 10 16 0.00 0.00
7:51 am 07:51 Sunny 50 10 34 1.1 54 54 NW 3 6 29.98 1015 10 16 0.00 0.00
8:51 am 08:51 Sunny 56 13.3 33 0.6 42 42 Calm 29.99 1016 10 16 0.00 0.00
9:51 am 09:51 Sunny 59 15 34 1.1 39 39 SSW 3 6 29.98 1015 10 16 0.00 0.00
10:51 am 10:51 Sunny 65 18.3 34 1.1 32 32 VRB 5 7 29.95 1014 10 16 0.00 0.00
11:51 am 11:51 Sunny 68 20 33 0.6 27 27 VRB 5 7 29.92 1013 10 16 0.00 0.00
12:51 pm 12:51 Sunny 72 22.2 32 0 23 23 NNW 8 13 29.87 1012 10 16 0.00 0.00
1:51 pm 13:51 Sunny 74 23.3 26 -3.3 17 17 NW 14 22 29.83 1010 10 16 0.00 0.00
2:51 pm 14:51 Mostly Sunny 74 23.3 28 -2.2 18 18 N 20 31 29.82 1010 10 16 0.00 0.00
3:51 pm 15:51 Sunny 74 23.3 25 -3.9 16 16 WNW 8 13 29.80 1009 10 16 0.00 0.00
4:51 pm 16:51 Sunny 74 23.3 19 -7.2 12 12 WNW 10 17 29.78 1009 10 16 0.00 0.00
5:51 pm 17:51 Sunny 72 22.2 22 -5.6 15 15 NW 12 19 29.80 1009 10 16 0.00 0.00
6:51 pm 18:51 Clear 65 18.3 21 -6.1 19 19 NW 8 13 29.82 1010 10 16 0.00 0.00
7:51 pm 19:51 Clear 63 17.2 28 -2.2 27 27 NNW 12 19 29.83 1010 10 16 0.00 0.00
8:51 pm 20:51 Clear 61 16.1 29 -1.7 30 30 NW 12 19 29.85 1011 10 16 0.00 0.00
9:51 pm 21:51 Clear 57 13.9 29 -1.7 34 34 NW 9 15 29.86 1011 10 16 0.00 0.00
10:51 pm 22:51 Clear 59 15 27 -2.8 29 29 WNW 7 11 29.85 1011 10 16 0.00 0.00
11:51 pm 23:51 Clear 54 12.2 27 -2.8 35 35 NW 9 15 29.85 1011 10 16 0.00 0.00

Powered by AerisWeather